Weather History for Algona, IA

Change the Weather History Date:

Tuesday, December 24, 2013

  Actual Average Record
Temperature  
Mean Temperature 0 °F -  
Max Temperature 14 °F 24 °F 46 °F (2011)
Min Temperature -14 °F 10 °F -14 °F (2013)
Degree Days  
Heating Degree Days 65    
Moisture  
Dew Point -8 °F    
Average Humidity 68    
Maximum Humidity 86    
Minimum Humidity 50    
Precipitation  
Precipitation 0.00 in - - ()
Sea Level Pressure  
Sea Level Pressure 30.25 in    
Wind  
Wind Speed 11 mph (South)    
Max Wind Speed 24 mph    
Max Gust Speed 32 mph    
Visibility 9 miles    
Events Snow    
Averages and records for this station are not official NWS values.
T = Trace of Precipitation, MM = Missing Value Source: NWS Daily Summary

Daily Weather History Graph

Daily Weather History Graph

Search for Another Location

Airport:

Trip Planner

Search our weather history database for the weather conditions in past years. The results will help you decide how hot, cold, wet, or windy it might be!

Date:

Astronomy

Dec. 24, 2013 Rise Set
Actual Time 7:46 AM CST 4:46 PM CST
Civil Twilight 7:14 AM CST 5:19 PM CST
Nautical Twilight 6:38 AM CST 5:55 PM CST
Astronomical Twilight 6:03 AM CST 6:29 PM CST
Moon No Moon Rise 11:31 AM CST (12/24)
Length of Visible Light 10h 05m
Length of Day
9h 00m
Waning Gibbous, 58% of the Moon is Illuminated
Dec 24
Waning Gibbous
Dec 25
Last Quarter
Jan 1
New
Jan 7
First Quarter
Jan 15
Full

Hourly Weather History & Observations

Time (CST) Temp. Windchill Dew Point Humidity Pressure Visibility Wind Dir Wind Speed Gust Speed Precip Events Conditions
12:15 AM -9.4 °F -24.3 °F -20.2 °F 59% 30.46 in 10.0 mi WNW 6.9 mph - N/A   Clear
12:35 AM -9.4 °F -24.3 °F -20.2 °F 59% 30.44 in 10.0 mi NW 6.9 mph - N/A   Clear
12:55 AM -11.2 °F -20.6 °F -20.2 °F 64% 30.43 in 10.0 mi NW 3.5 mph - N/A   Clear
1:15 AM -9.4 °F -20.9 °F -20.2 °F 59% 30.43 in 10.0 mi NNW 4.6 mph - N/A   Clear
1:35 AM -11.2 °F -20.6 °F -20.2 °F 64% 30.44 in 10.0 mi West 3.5 mph - N/A   Clear
1:55 AM -13.0 °F -31.3 °F -22.0 °F 64% 30.45 in 10.0 mi SSW 9.2 mph - N/A   Clear
2:15 AM -13.0 °F -27.0 °F -22.0 °F 64% 30.44 in 10.0 mi SSW 5.8 mph - N/A   Clear
2:35 AM -13.0 °F -30.0 °F -22.0 °F 64% 30.45 in 10.0 mi SW 8.1 mph - N/A   Clear
2:55 AM -11.2 °F -29.0 °F -20.2 °F 64% 30.44 in 10.0 mi SW 9.2 mph - N/A   Clear
3:15 AM -13.0 °F -31.3 °F -22.0 °F 64% 30.44 in 10.0 mi SW 9.2 mph - N/A   Clear
3:35 AM -11.2 °F -26.4 °F -20.2 °F 64% 30.43 in 10.0 mi SW 6.9 mph - N/A   Clear
3:55 AM -13.0 °F -28.6 °F -22.0 °F 64% 30.43 in 10.0 mi SW 6.9 mph - N/A   Clear
4:15 AM -13.0 °F -27.0 °F -22.0 °F 64% 30.41 in 10.0 mi South 5.8 mph - N/A   Clear
4:35 AM -13.0 °F -25.1 °F -22.0 °F 64% 30.41 in 10.0 mi South 4.6 mph - N/A   Clear
4:55 AM -13.0 °F -28.6 °F -22.0 °F 64% 30.38 in 10.0 mi SSE 6.9 mph - N/A   Clear
5:15 AM -13.0 °F -27.0 °F -22.0 °F 64% 30.37 in 10.0 mi SE 5.8 mph - N/A   Clear
5:35 AM -13.0 °F -27.0 °F -20.2 °F 70% 30.37 in 10.0 mi SSE 5.8 mph - N/A   Clear
5:55 AM -13.0 °F -27.0 °F -20.2 °F 70% 30.36 in 10.0 mi SSE 5.8 mph - N/A   Clear
6:15 AM -14.8 °F -33.5 °F -22.0 °F 70% 30.34 in 10.0 mi SE 9.2 mph - N/A   Clear
6:35 AM -11.2 °F -30.1 °F -20.2 °F 64% 30.33 in 10.0 mi SE 10.4 mph - N/A   Clear
6:55 AM -11.2 °F -26.4 °F -20.2 °F 64% 30.34 in 10.0 mi SE 6.9 mph - N/A   Clear
7:15 AM -9.4 °F -27.9 °F -20.2 °F 59% 30.32 in 10.0 mi SE 10.4 mph - N/A   Clear
7:35 AM -7.6 °F -26.6 °F -20.2 °F 54% 30.34 in 10.0 mi SSE 11.5 mph - N/A   Clear
7:55 AM -9.4 °F -28.9 °F -20.2 °F 59% 30.34 in 10.0 mi South 11.5 mph - N/A   Clear
8:15 AM -7.6 °F -26.6 °F -20.2 °F 54% 30.33 in 9.0 mi SSE 11.5 mph - N/A   Clear
8:35 AM -5.8 °F -26.0 °F -18.4 °F 55% 30.33 in 10.0 mi SSE 13.8 mph 19.6 mph N/A   Clear
8:55 AM -5.8 °F -26.0 °F -18.4 °F 55% 30.33 in 10.0 mi SSE 13.8 mph - N/A   Clear
9:15 AM -4.0 °F -23.0 °F -16.6 °F 55% 30.34 in 10.0 mi SSE 12.7 mph - N/A   Clear
9:35 AM -2.2 °F -23.5 °F -16.6 °F 50% 30.31 in 10.0 mi SSE 17.3 mph - N/A   Clear
9:55 AM -0.4 °F -21.2 °F -14.8 °F 51% 30.31 in 10.0 mi SSE 17.3 mph - N/A   Clear
10:15 AM 1.4 °F -18.8 °F -13.0 °F 51% 30.30 in 10.0 mi SSE 17.3 mph - N/A   Partly Cloudy
10:35 AM 3.2 °F -15.9 °F -9.4 °F 56% 30.30 in 10.0 mi SSE 16.1 mph - N/A   Mostly Cloudy
10:55 AM 3.2 °F -17.6 °F -7.6 °F 61% 30.28 in 10.0 mi SSE 19.6 mph - N/A   Overcast
11:15 AM 5.0 °F -14.2 °F -7.6 °F 56% 30.28 in 10.0 mi SSE 17.3 mph 27.6 mph N/A   Mostly Cloudy
11:35 AM 5.0 °F -15.2 °F -5.8 °F 61% 30.26 in 10.0 mi SSE 19.6 mph 25.3 mph N/A   Mostly Cloudy
11:55 AM 6.8 °F -12.9 °F -5.8 °F 56% 30.24 in 10.0 mi SSE 19.6 mph - N/A   Overcast
12:15 PM 6.8 °F -14.7 °F -4.0 °F 61% 30.23 in 10.0 mi South 24.2 mph - N/A   Overcast
12:35 PM 6.8 °F -11.8 °F -4.0 °F 61% 30.23 in 10.0 mi SSE 17.3 mph 27.6 mph N/A   Overcast
12:55 PM 6.8 °F -12.4 °F -4.0 °F 61% 30.21 in 10.0 mi SSE 18.4 mph 25.3 mph N/A   Overcast
1:15 PM 6.8 °F -14.3 °F -4.0 °F 61% 30.18 in 7.0 mi SSE 23.0 mph 28.8 mph N/A   Overcast
1:35 PM 6.8 °F -13.8 °F -2.2 °F 67% 30.15 in 10.0 mi SSE 21.9 mph 28.8 mph N/A   Overcast
1:55 PM 6.8 °F -13.8 °F -2.2 °F 67% 30.14 in 10.0 mi SSE 21.9 mph 28.8 mph N/A   Overcast
2:15 PM 8.6 °F -11.0 °F -2.2 °F 62% 30.13 in 10.0 mi SSE 20.7 mph 32.2 mph N/A   Overcast
2:35 PM 8.6 °F -11.0 °F -0.4 °F 67% 30.14 in 1.8 mi SSE 20.7 mph - N/A Snow Light Snow
2:55 PM 8.6 °F -10.0 °F 1.4 °F 73% 30.14 in 1.5 mi SSE 18.4 mph 25.3 mph N/A Snow Light Snow
3:15 PM 8.6 °F -10.5 °F 1.4 °F 73% 30.13 in 2.5 mi SSE 19.6 mph - N/A Snow Light Snow
3:35 PM 8.6 °F -10.0 °F 1.4 °F 73% 30.12 in 6.0 mi SSE 18.4 mph 25.3 mph N/A   Haze
3:55 PM 8.6 °F -10.5 °F 1.4 °F 73% 30.12 in 3.0 mi SSE 19.6 mph - N/A   Haze
4:15 PM 8.6 °F -10.0 °F 1.4 °F 73% 30.12 in 7.0 mi SSE 18.4 mph 24.2 mph N/A   Overcast
4:35 PM 8.6 °F -10.0 °F 1.4 °F 73% 30.12 in 7.0 mi SSE 18.4 mph - N/A   Overcast
4:55 PM 8.6 °F -8.9 °F 1.4 °F 73% 30.13 in 9.0 mi SSE 16.1 mph - N/A   Overcast
5:15 PM 8.6 °F -8.3 °F 1.4 °F 73% 30.14 in 10.0 mi SSE 15.0 mph - N/A   Overcast
5:35 PM 8.6 °F -7.7 °F 1.4 °F 73% 30.14 in 10.0 mi SSE 13.8 mph - N/A   Overcast
5:55 PM 10.4 °F -6.0 °F 1.4 °F 67% 30.14 in 10.0 mi South 15.0 mph 20.7 mph N/A   Overcast
6:15 PM 10.4 °F -4.1 °F 3.2 °F 73% 30.15 in 10.0 mi South 11.5 mph - N/A   Overcast
6:35 PM 10.4 °F -4.8 °F 3.2 °F 73% 30.14 in 10.0 mi SSE 12.7 mph - N/A   Overcast
6:55 PM 10.4 °F -5.4 °F 3.2 °F 73% 30.14 in 10.0 mi SSE 13.8 mph - N/A   Overcast
7:15 PM 8.6 °F -7.7 °F 3.2 °F 79% 30.14 in 10.0 mi SSE 13.8 mph - N/A   Overcast
7:35 PM 10.4 °F -5.4 °F 3.2 °F 73% 30.14 in 10.0 mi SSE 13.8 mph - N/A   Overcast
7:55 PM 10.4 °F -6.6 °F 3.2 °F 73% 30.13 in 8.0 mi South 16.1 mph - N/A   Overcast
8:15 PM 10.4 °F -5.4 °F 5.0 °F 79% 30.14 in 1.5 mi South 13.8 mph - N/A Snow Light Snow
8:35 PM 10.4 °F -4.8 °F 6.8 °F 85% 30.14 in 2.0 mi South 12.7 mph - N/A Snow Light Snow
8:55 PM 10.4 °F -4.8 °F 6.8 °F 85% 30.14 in 2.0 mi South 12.7 mph - N/A   Haze
9:15 PM 12.2 °F -1.8 °F 6.8 °F 79% 30.14 in 4.0 mi South 11.5 mph - N/A   Overcast
9:35 PM 12.2 °F -3.1 °F 8.6 °F 85% 30.13 in 3.0 mi South 13.8 mph - N/A   Overcast
9:55 PM 14.0 °F -0.8 °F 8.6 °F 79% 30.13 in 3.0 mi South 13.8 mph - N/A   Overcast
10:15 PM 14.0 °F -0.8 °F 10.4 °F 86% 30.12 in 8.0 mi South 13.8 mph - N/A   Mostly Cloudy
10:35 PM 14.0 °F -0.2 °F 10.4 °F 86% 30.12 in 10.0 mi SSW 12.7 mph - N/A   Overcast
10:55 PM 14.0 °F -1.4 °F 10.4 °F 86% 30.12 in 10.0 mi South 15.0 mph - N/A   Overcast
11:15 PM 14.0 °F -0.2 °F 10.4 °F 86% 30.12 in 10.0 mi SSW 12.7 mph - N/A   Overcast
11:35 PM 14.0 °F -0.2 °F 10.4 °F 86% 30.11 in 10.0 mi South 12.7 mph - N/A   Overcast
11:55 PM 14.0 °F 1.2 °F 10.4 °F 86% 30.11 in 10.0 mi SSW 10.4 mph - N/A   Overcast